TimeEDT,TemperatureF,Dew PointF,Humidity,Sea Level PressureIn,VisibilityMPH,Wind Direction,Wind SpeedMPH,Gust SpeedMPH,PrecipitationIn,Events,Conditions,WindDirDegrees,DateUTC
12:10 AM,55.6,44.4,66,29.82,10.0,WNW,5.8,-,N/A,,Clear,300,2012-09-09 04:10:00
12:35 AM,55.4,44.2,66,29.82,10.0,WNW,5.8,-,N/A,,Clear,300,2012-09-09 04:35:00
12:54 AM,54.5,45.1,71,29.82,10.0,WNW,5.8,-,N/A,,Clear,300,2012-09-09 04:54:00
1:15 AM,54.9,45.0,69,29.83,10.0,WNW,6.9,-,N/A,,Clear,290,2012-09-09 05:15:00
1:33 AM,54.7,44.6,69,29.83,10.0,WNW,6.9,-,N/A,,Clear,290,2012-09-09 05:33:00
1:55 AM,54.9,44.4,68,29.84,10.0,WNW,5.8,-,N/A,,Clear,290,2012-09-09 05:55:00
2:15 AM,54.5,44.6,69,29.84,10.0,WNW,6.9,-,N/A,,Clear,290,2012-09-09 06:15:00
2:33 AM,54.0,45.1,72,29.84,10.0,WNW,4.6,-,N/A,,Clear,300,2012-09-09 06:33:00
2:55 AM,54.0,45.9,74,29.84,10.0,NW,6.9,-,N/A,,Clear,320,2012-09-09 06:55:00
3:15 AM,53.6,45.7,75,29.85,10.0,NW,8.1,-,N/A,,Clear,310,2012-09-09 07:15:00
3:19 AM,53.2,46.0,77,29.85,10.0,NW,8.1,-,N/A,,Clear,310,2012-09-09 07:19:00
3:45 AM,51.8,46.4,82,29.85,10.0,NNW,5.8,-,N/A,,Clear,340,2012-09-09 07:45:00
4:05 AM,51.8,46.4,82,29.86,10.0,North,6.9,-,N/A,,Clear,350,2012-09-09 08:05:00
4:25 AM,51.8,46.4,82,29.86,10.0,North,4.6,-,N/A,,Clear,350,2012-09-09 08:25:00
4:45 AM,51.8,46.4,82,29.87,10.0,North,6.9,-,N/A,,Clear,350,2012-09-09 08:45:00
5:05 AM,51.8,46.4,82,29.88,10.0,North,5.8,-,N/A,,Clear,350,2012-09-09 09:05:00
5:25 AM,50.0,46.4,87,29.88,10.0,NNW,4.6,-,N/A,,Clear,340,2012-09-09 09:25:00
5:45 AM,50.0,46.4,87,29.88,10.0,NNW,5.8,-,N/A,,Clear,340,2012-09-09 09:45:00
6:05 AM,50.0,46.4,87,29.89,10.0,NNW,4.6,-,N/A,,Clear,330,2012-09-09 10:05:00
6:25 AM,48.2,46.4,93,29.90,10.0,NNW,3.5,-,N/A,,Clear,330,2012-09-09 10:25:00
6:45 AM,50.0,46.4,87,29.92,10.0,NW,5.8,-,N/A,,Clear,320,2012-09-09 10:45:00
7:05 AM,48.2,44.6,87,29.92,10.0,NNW,3.5,-,N/A,,Clear,330,2012-09-09 11:05:00
7:25 AM,48.2,46.4,93,29.93,10.0,NNW,4.6,-,N/A,,Clear,330,2012-09-09 11:25:00
8:05 AM,53.6,46.4,77,29.95,10.0,NW,3.5,-,N/A,,Clear,320,2012-09-09 12:05:00
8:25 AM,53.6,46.4,77,29.95,10.0,NNW,5.8,-,N/A,,Mostly Cloudy,330,2012-09-09 12:25:00
8:45 AM,53.6,46.4,77,29.96,10.0,Calm,Calm,-,N/A,,Overcast,0,2012-09-09 12:45:00
9:05 AM,55.4,48.2,77,29.96,10.0,NNW,3.5,-,N/A,,Mostly Cloudy,340,2012-09-09 13:05:00
9:25 AM,57.2,48.2,72,29.97,10.0,North,5.8,-,N/A,,Mostly Cloudy,10,2012-09-09 13:25:00
9:45 AM,59.0,48.2,67,29.98,10.0,North,8.1,-,N/A,,Mostly Cloudy,360,2012-09-09 13:45:00
10:05 AM,59.0,42.8,55,29.99,10.0,North,5.8,-,N/A,,Scattered Clouds,10,2012-09-09 14:05:00
10:25 AM,60.8,39.2,45,30.00,10.0,North,5.8,-,N/A,,Scattered Clouds,10,2012-09-09 14:25:00
10:45 AM,60.8,39.2,45,30.00,10.0,North,6.9,-,N/A,,Clear,350,2012-09-09 14:45:00
11:05 AM,60.8,37.4,42,30.00,10.0,NNW,6.9,-,N/A,,Clear,340,2012-09-09 15:05:00
11:25 AM,60.8,39.2,45,30.01,10.0,North,8.1,-,N/A,,Clear,360,2012-09-09 15:25:00
11:45 AM,62.6,39.2,42,30.01,10.0,North,8.1,-,N/A,,Clear,350,2012-09-09 15:45:00
12:05 PM,64.4,42.8,45,30.01,10.0,NNW,6.9,-,N/A,,Clear,340,2012-09-09 16:05:00
12:25 PM,64.4,37.4,37,30.01,10.0,North,12.7,18.4,N/A,,Clear,350,2012-09-09 16:25:00
12:45 PM,64.4,37.4,37,30.02,10.0,North,10.4,17.3,N/A,,Clear,360,2012-09-09 16:45:00
1:05 PM,64.4,35.6,34,30.02,10.0,North,12.7,19.6,N/A,,Clear,10,2012-09-09 17:05:00
1:25 PM,64.4,35.6,34,30.02,10.0,North,13.8,20.7,N/A,,Clear,350,2012-09-09 17:25:00
1:45 PM,64.4,35.6,34,30.02,10.0,North,10.4,-,N/A,,Clear,350,2012-09-09 17:45:00
2:05 PM,66.2,37.4,35,30.02,10.0,North,11.5,-,N/A,,Clear,350,2012-09-09 18:05:00
2:25 PM,66.2,39.2,37,30.03,10.0,North,11.5,16.1,N/A,,Clear,360,2012-09-09 18:25:00
2:45 PM,64.4,37.4,37,30.03,10.0,North,8.1,-,N/A,,Clear,10,2012-09-09 18:45:00
3:05 PM,64.4,37.4,37,30.03,10.0,NNE,8.1,-,N/A,,Scattered Clouds,20,2012-09-09 19:05:00
3:25 PM,62.6,39.2,42,30.03,10.0,North,4.6,-,N/A,,Mostly Cloudy,360,2012-09-09 19:25:00
3:45 PM,62.6,41.0,45,30.03,10.0,NNW,5.8,-,N/A,,Overcast,340,2012-09-09 19:45:00
4:05 PM,62.6,41.0,45,30.03,10.0,NNW,8.1,-,N/A,,Overcast,340,2012-09-09 20:05:00
4:25 PM,64.4,39.2,40,30.03,10.0,NNW,8.1,-,N/A,,Overcast,330,2012-09-09 20:25:00
4:45 PM,62.6,41.0,45,30.04,10.0,North,4.6,-,N/A,,Overcast,360,2012-09-09 20:45:00
5:05 PM,62.6,41.0,45,30.04,10.0,NW,6.9,-,N/A,,Mostly Cloudy,320,2012-09-09 21:05:00
5:45 PM,62.6,42.8,48,30.05,10.0,North,6.9,-,N/A,,Mostly Cloudy,360,2012-09-09 21:45:00
6:05 PM,62.6,41.0,45,30.05,10.0,NNW,9.2,-,N/A,,Mostly Cloudy,340,2012-09-09 22:05:00
6:25 PM,62.6,42.8,48,30.05,10.0,North,5.8,-,N/A,,Mostly Cloudy,360,2012-09-09 22:25:00
6:45 PM,62.6,42.8,48,30.06,10.0,North,6.9,-,N/A,,Overcast,360,2012-09-09 22:45:00
7:05 PM,60.8,44.6,55,30.06,10.0,North,6.9,-,N/A,,Overcast,350,2012-09-09 23:05:00
7:25 PM,60.8,41.0,48,30.06,10.0,North,9.2,-,N/A,,Scattered Clouds,350,2012-09-09 23:25:00
7:45 PM,59.0,42.8,55,30.06,10.0,NNW,10.4,-,N/A,,Clear,340,2012-09-09 23:45:00
8:25 PM,59.0,44.6,59,30.07,10.0,NNW,5.8,-,N/A,,Clear,340,2012-09-10 00:25:00
8:45 PM,57.2,44.6,63,30.08,10.0,North,5.8,-,N/A,,Clear,350,2012-09-10 00:45:00
9:05 PM,57.2,46.4,67,30.08,10.0,NNW,9.2,-,N/A,,Clear,340,2012-09-10 01:05:00
9:25 PM,57.2,46.4,67,30.09,10.0,North,6.9,-,N/A,,Clear,350,2012-09-10 01:25:00
9:45 PM,55.4,46.4,72,30.09,10.0,NNW,6.9,-,N/A,,Clear,340,2012-09-10 01:45:00
10:05 PM,55.4,46.4,72,30.09,10.0,NNW,8.1,-,N/A,,Clear,340,2012-09-10 02:05:00
10:25 PM,55.4,46.4,72,30.09,10.0,NNW,6.9,-,N/A,,Clear,330,2012-09-10 02:25:00
10:45 PM,55.4,46.4,72,30.09,10.0,NNW,5.8,-,N/A,,Clear,340,2012-09-10 02:45:00
11:05 PM,55.4,46.4,72,30.10,10.0,NNW,6.9,-,N/A,,Clear,340,2012-09-10 03:05:00
11:25 PM,53.6,46.4,77,30.10,10.0,NNW,8.1,-,N/A,,Clear,340,2012-09-10 03:25:00
11:45 PM,53.6,48.2,82,30.10,10.0,NNW,6.9,-,N/A,,Clear,330,2012-09-10 03:45:00